MST,Max TemperatureF,Mean TemperatureF,Min TemperatureF,Max Dew PointF,MeanDew PointF,Min DewpointF,Max Humidity, Mean Humidity, Min Humidity, Max Sea Level PressureIn, Mean Sea Level PressureIn, Min Sea Level PressureIn, Max VisibilityMiles, Mean VisibilityMiles, Min VisibilityMiles, Max Wind SpeedMPH, Mean Wind SpeedMPH, Max Gust SpeedMPH,PrecipitationIn, CloudCover, Events, WindDirDegrees
2012-8-1,86,77,68,64,59,53,84,55,28,30.22,30.02,29.94,10,10,10,15,2,24,0.00,0,Thunderstorm,300
2012-8-2,95,80,66,59,53,46,68,38,18,30.15,29.91,29.79,10,10,10,7,3,,0.00,0,,267
2012-8-3,99,85,71,52,47,37,51,28,8,30.01,29.81,29.69,10,10,10,21,3,32,0.00,0,,253
2012-8-4,96,84,73,48,44,39,36,23,9,29.88,29.84,29.79,10,10,10,15,3,,0.00,0,,183
2012-8-5,91,82,72,54,46,43,38,26,11,30.04,29.96,29.88,10,10,10,22,4,28,0.00,0,,241
2012-8-6,96,84,73,54,51,47,50,31,14,30.09,30.02,29.94,10,10,10,9,4,16,0.00,0,,326
2012-8-7,99,86,73,52,47,42,46,25,7,30.02,29.93,29.85,10,10,10,9,2,,0.00,0,,341
2012-8-8,102,90,78,49,44,35,35,21,8,30.15,29.91,29.83,10,10,10,15,3,22,0.00,0,Rain,27
2012-8-9,102,88,75,55,49,44,37,24,14,30.10,29.92,29.82,10,10,2,20,6,31,0.00,1,Rain-Thunderstorm,227
2012-8-10,100,88,75,52,47,40,43,25,6,30.14,29.84,29.74,10,10,10,10,3,18,0.00,0,,8
2012-8-11,100,88,75,49,44,35,37,22,5,30.06,29.83,29.74,10,10,10,14,4,20,0.00,0,,278
2012-8-12,100,90,79,50,45,39,34,21,9,30.03,29.85,29.78,10,10,9,24,5,37,0.00,0,Thunderstorm,229
2012-8-13,100,86,73,57,47,41,45,25,11,30.04,29.85,29.73,10,10,10,15,4,31,0.00,1,Rain-Thunderstorm,11
2012-8-14,98,86,73,55,51,47,50,32,15,29.89,29.82,29.73,10,10,10,22,4,28,0.01,0,,350
2012-8-15,100,86,71,49,46,42,41,25,10,29.92,29.77,29.68,10,10,10,12,3,23,0.00,0,,351
2012-8-16,98,86,75,47,45,43,35,23,11,30.01,29.84,29.76,10,10,10,17,2,28,0.00,0,Thunderstorm,298
2012-8-17,98,86,73,50,48,44,38,27,13,30.13,29.86,29.77,10,10,10,14,3,29,0.00,0,,146
2012-8-18,99,86,72,50,47,40,44,26,7,30.07,29.81,29.70,10,10,10,8,3,,0.00,0,,290
2012-8-19,96,86,75,57,52,47,47,32,16,30.00,29.81,29.75,10,10,10,21,4,29,0.00,0,Thunderstorm,290
2012-8-20,97,86,75,55,52,46,50,32,11,29.91,29.81,29.72,10,10,10,13,5,24,0.00,0,,289
2012-8-21,93,84,75,58,53,46,50,34,15,30.07,29.85,29.75,10,10,8,24,4,33,0.00,1,Thunderstorm,214
2012-8-22,87,79,71,58,54,51,61,44,27,29.99,29.87,29.80,10,10,10,9,5,,0.00,1,Thunderstorm,327
2012-8-23,84,80,75,56,54,52,50,41,33,30.00,29.84,29.80,10,10,10,9,4,17,0.00,2,Thunderstorm,324
2012-8-24,93,81,69,57,53,45,65,42,19,30.04,29.81,29.72,10,10,10,10,2,17,0.00,1,,279
2012-8-25,95,82,69,54,49,42,51,32,12,29.84,29.78,29.71,10,10,10,8,4,,0.00,0,,262
2012-8-26,98,84,69,57,50,42,50,34,12,30.08,29.86,29.76,10,10,2,10,4,29,0.08,1,Rain-Thunderstorm,229
2012-8-27,97,84,71,55,51,46,53,33,12,30.11,29.95,29.86,10,10,10,16,4,21,0.00,2,Thunderstorm,293
2012-8-28,99,86,73,55,49,45,50,29,10,30.00,29.91,29.81,10,10,10,9,3,,0.00,0,,328
2012-8-29,100,86,73,49,46,37,40,24,8,30.01,29.84,29.74,10,10,4,31,5,54,0.00,1,Rain-Thunderstorm,41
2012-8-30,97,85,73,51,47,39,45,27,10,29.96,29.81,29.70,10,10,10,22,5,32,0.00,2,Rain-Thunderstorm,250
2012-8-31,91,80,69,58,53,48,63,43,23,30.04,29.90,29.79,10,10,8,13,4,26,0.04,2,Rain-Thunderstorm,252